Content
SEND FEEDBACK

Daily
Averages
Monthly
Summary
Japan

OGANO, JAPAN


Home > Asia > Japan
Elevation: 715 feet     Latitude: 35 58N     Longitude: 139 04E

WEATHER
 
SELECT A DAY
Number of Records: 192,036;   Date Range: 7/1/96 - 8/10/14
 
SHARE

PRINT THIS DATA

[ ← Previous Day ]
WEATHER ALMANAC - JANUARY 31, 2013
[ Next Day → ]
[ °C ]   °F
Weather ElementAverageHighLow
Temperature36.9 °F46.9 °F (2:55 pm)26.8 °F (5:55 am)
Dewpoint18.3 °F22.1 °F (8:55 am)13.8 °F (3:55 pm)
Humidity50.2 %73 % (5:55 am)27 % (1:55 pm)
Barometer30.57 in30.62 in (11:55 pm)30.50 in (1:55 am)
Wind Speed2.5 mph6.9 mph (8:55 pm)
Weather ElementAverage
Visibility10 mi
Wind DirectionESE (127 °)

Weather ElementTotal
Precipitation---
Heating Degree Days28.2 (Base 65)
Averaged from 23 records on January 31, 2013
WEATHER CONDITIONS BREAKOUT
WIND DIRECTION BREAKOUT
WEATHER BY HOUR - JANUARY 31, 2013
[ °C ]   °F
Local TimeTemperatureDewpointHumidityBarometerVisibilityWind DirectionWind SpeedGust SpeedPrecipitationEventsConditions
1:55 AM29.7 °F19.8 °F67 %30.50 in10.0 miSW (230°)3.5 mphClear
2:55 AM31.3 °F19.2 °F61 %30.50 in10.0 miNNW (330°)3.5 mphClear
3:55 AM29.1 °F20.7 °F71 %30.51 in10.0 miWNW (290°)3.5 mphClear
4:55 AM28.9 °F20.3 °F70 %30.54 in10.0 miWest (280°)4.6 mphClear
5:55 AM26.8 °F19.0 °F73 %30.56 in10.0 miCalmClear
6:55 AM27.5 °F19.8 °F73 %30.58 in10.0 miCalmClear
7:55 AM31.6 °F21.7 °F67 %30.59 in10.0 miWNW (290°)3.5 mphClear
8:55 AM35.2 °F22.1 °F59 %30.60 in10.0 miCalmClear
9:55 AM38.3 °F21.0 °F50 %30.61 in10.0 miCalmClear
10:55 AM42.1 °F19.0 °F40 %30.60 in10.0 miENE (70°)4.6 mphClear
11:55 AM43.5 °F14.7 °F31 %30.58 in10.0 miCalmClear
12:55 PM45.1 °F14.7 °F29 %30.55 in10.0 miCalmClear
1:55 PM46.4 °F14.2 °F27 %30.54 in10.0 miVariable3.5 mphClear
2:55 PM46.9 °F14.0 °F27 %30.53 in10.0 miESE (120°)4.6 mphClear
3:55 PM46.8 °F13.8 °F27 %30.54 in10.0 miSouth (170°)3.5 mphClear
4:55 PM45.1 °F13.8 °F28 %30.55 in10.0 miSE (130°)3.5 mphClear
5:55 PM41.2 °F15.6 °F36 %30.57 in10.0 miSSE (160°)3.5 mphClear
6:55 PM40.5 °F19.6 °F43 %30.58 in10.0 miWest (270°)4.6 mphClear
7:55 PM38.1 °F19.2 °F47 %30.59 in10.0 miCalmClear
8:55 PM36.3 °F19.4 °F50 %30.60 in10.0 miWest (280°)6.9 mphClear
9:55 PM35.2 °F20.8 °F56 %30.60 in10.0 miWNW (300°)3.5 mphClear
10:55 PM30.9 °F18.9 °F61 %30.61 in10.0 miCalmClear
11:55 PM31.6 °F19.6 °F61 %30.62 in10.0 miCalmClear
Hourly data recorded from RJTY, located miles away from Ogano, Japan







STORIES FROM OUR PARTNERS